Flag for Germany Weather past 2 weeks in Straubing, Bavaria, Germany

Now
73 °F

Overcast.


Feels Like: 75 °F
Forecast: 60 / 76 °F
Wind: 3 mph from Northwest

Location: Straubing

Current Time: Jul 30, 2014 at 3:13:58 PM

Latest Report: Jul 30, 2014 at 2:00 PM


Visibility: 10 mi

Pressure: 29.73 "Hg

Humidity: 70%

Dew point: 63 °F

Location of StraubingLocation

Historic Weather in Straubing — Graph

°F

Straubing temperature yesterday

Maximum temperature yesterday: 79 °F (at 4:00 PM)
Minimum temperature yesterday: 61 °F (at 2:00 AM)
Average temperature yesterday: 69 °F

Past Weeks' High & Low Weather Summary

 TemperatureHumidityPressure
High90 °F (Jul 20, 3:00 PM)96% (Jul 22, 1:00 AM)30.17 "Hg (Jul 22, 1:00 AM)
Low53 °F (Jul 24, 6:00 AM)24% (Jul 20, 4:00 PM)29.67 "Hg (Jul 29, 6:00 PM)
Average70 °F70%29.92 "Hg
* Reported Jul 15 2:00 PM — Jul 30 2:00 PM, Straubing, Weather by CustomWeather, © 2014

Note: Actual official high and low records may vary slightly from our data, if they occured in-between our weather recording intervals... More about our weather records

Advertising

Straubing weather history for previous 24 hours

 ConditionsComfort  
Time TempWeatherWind HumidityBarometerVisibility
2:00 PM
Jul 30
73 °FOvercast.3 mph70%29.73 "Hg10 mi
1:00 PM72 °FOvercast.3 mph73%29.73 "Hg9 mi
12:00 PM69 °FOvercast.5 mphN/A29.74 "HgN/A
11:00 AM67 °FLow clouds.5 mph87%29.74 "Hg6 mi
10:00 AM66 °FLow clouds.3 mph94%29.74 "Hg3 mi
9:00 AM65 °FDrizzle. Low clouds.2 mph93%29.73 "Hg2 mi
8:00 AM66 °FLow clouds.2 mph91%29.73 "Hg3 mi
7:00 AM65 °FLow clouds.2 mph90%29.73 "Hg6 mi
6:00 AM65 °FLow clouds.5 mph89%29.71 "Hg7 mi
4:00 AM65 °FLow clouds.3 mph86%29.72 "Hg13 mi
3:00 AM66 °FLow clouds.3 mph87%29.71 "Hg12 mi
2:00 AM66 °FOvercast.5 mph87%29.72 "Hg10 mi
1:00 AM67 °FOvercast.3 mph85%29.71 "Hg12 mi
12:00 AM68 °FOvercast.3 mph81%29.72 "Hg12 mi
11:00 PM
Jul 29
69 °FOvercast.2 mph78%29.70 "Hg11 mi
10:00 PM71 °FOvercast.2 mph73%29.70 "Hg12 mi
9:00 PM71 °FClear.1 mph71%29.69 "Hg12 mi
8:00 PM74 °FSunny.2 mph64%29.67 "Hg14 mi
7:00 PM75 °FSunny.2 mph62%29.67 "Hg16 mi
6:00 PM77 °FScattered clouds.6 mph58%29.67 "Hg19 mi
4:00 PM79 °FPassing clouds.2 mph54%29.68 "Hg18 mi
3:00 PM77 °FPartly sunny.2 mph57%29.69 "Hg19 mi
Weather by CustomWeather, © 2014

See weather overviewHow to use our weather pages